This is the latest recevied weather packets stored in our database for station/object KD4EED. If no packets are shown the sender has not sent any weather packets the latest 10 day(s).
| Time | Temp. | Humidity | Pressure | Rain* | Wind** | Luminosity | Snow |
|---|---|---|---|---|---|---|---|
| 1788571652 | 25° C | 64% | 1009.8 hPa | - | - | 39 W/m² | - |
| 1788571347 | 25.56° C | 63% | 1009.9 hPa | - | - | 44 W/m² | - |
| 1788571044 | 25.56° C | 62% | 1009.9 hPa | - | - | 49 W/m² | - |
| 1788570739 | 26.11° C | 60% | 1009.9 hPa | - | - | 53 W/m² | - |
| 1788570439 | 26.67° C | 59% | 1010.1 hPa | - | - | 60 W/m² | - |
| 1788570135 | 26.67° C | 58% | 1010.2 hPa | - | - | 68 W/m² | - |
| 1788569831 | 27.78° C | 56% | 1010.1 hPa | - | - | 75 W/m² | - |
| 1788569527 | 27.78° C | 55% | 1010.1 hPa | - | - | 81 W/m² | - |
| 1788569221 | 28.33° C | 54% | 1010.1 hPa | - | - | 88 W/m² | - |
| 1788568916 | 27.78° C | 55% | 1010 hPa | - | - | 97 W/m² | - |
| 1788568611 | 27.78° C | 55% | 1010 hPa | - | - | 104 W/m² | - |
| 1788568307 | 27.78° C | 56% | 1010.1 hPa | - | - | 115 W/m² | - |
| 1788568003 | 27.78° C | 55% | 1010 hPa | - | - | 125 W/m² | - |
| 1788567703 | 27.78° C | 55% | 1010 hPa | - | - | 147 W/m² | - |
| 1788567398 | 27.78° C | 55% | 1010 hPa | - | - | 173 W/m² | - |
| 1788567097 | 28.33° C | 54% | 1009.9 hPa | - | - | 188 W/m² | - |
| 1788566793 | 27.78° C | 54% | 1009.8 hPa | - | - | 200 W/m² | - |
| 1788566489 | 27.78° C | 54% | 1009.9 hPa | - | - | 207 W/m² | - |
| 1788566188 | 27.78° C | 55% | 1009.9 hPa | - | - | 219 W/m² | - |
| 1788565888 | 27.78° C | 55% | 1009.9 hPa | - | - | 231 W/m² | - |
| 1788565583 | 28.33° C | 54% | 1010 hPa | - | - | 249 W/m² | - |
| 1788565279 | 28.33° C | 54% | 1009.9 hPa | - | - | 265 W/m² | - |
| 1788564974 | 28.33° C | 53% | 1010 hPa | - | - | 283 W/m² | - |
| 1788564670 | 28.89° C | 53% | 1010.1 hPa | - | - | 300 W/m² | - |
| 1788564366 | 28.33° C | 54% | 1009.9 hPa | - | - | 318 W/m² | - |
* Rain since midnight (hover to see other rain measurements)
** Current wind speed in m/s (hover to see current wind gust speed)